Time,TemperatureF,DewpointF,PressureIn,WindDirection,WindDirectionDegrees,WindSpeedMPH,WindSpeedGustMPH,Humidity,HourlyPrecipIn,Conditions,Clouds,dailyrainin,SoftwareType,DateUTC
2013-05-04 00:02:00,39.0,27.0,-100.00,NE,50,8.0,12.0,60,0.00,,,0.00,,2013-05-04 05:02:00,
2013-05-04 00:11:00,39.0,27.0,-100.00,NE,50,7.0,12.0,62,0.00,,,0.00,,2013-05-04 05:11:00,
2013-05-04 00:22:00,38.0,28.0,-100.00,NE,50,10.0,13.0,65,0.00,,,0.00,,2013-05-04 05:22:00,
2013-05-04 00:32:00,38.0,28.0,-100.00,NE,55,11.0,17.0,68,0.00,,,0.00,,2013-05-04 05:32:00,
2013-05-04 00:42:00,38.0,30.0,-100.00,ENE,60,7.0,16.0,71,0.00,,,0.00,,2013-05-04 05:42:00,
2013-05-04 00:52:00,38.0,30.0,-100.00,ENE,60,7.0,12.0,74,0.00,,,0.00,,2013-05-04 05:52:00,
2013-05-04 01:01:00,37.0,30.0,-100.00,ENE,70,7.0,12.0,76,0.00,,,0.00,,2013-05-04 06:01:00,
2013-05-04 01:11:00,37.0,32.0,-100.00,ENE,65,9.0,13.0,78,0.00,,,0.00,,2013-05-04 06:11:00,
2013-05-04 01:21:00,37.0,34.0,-100.00,NE,55,10.0,15.0,85,0.00,,,0.00,,2013-05-04 06:21:00,
2013-05-04 01:32:00,36.0,34.0,-100.00,NE,55,9.0,16.0,89,0.00,,,0.00,,2013-05-04 06:32:00,
2013-05-04 01:41:00,36.0,34.0,-100.00,NE,55,8.0,12.0,91,0.00,,,0.00,,2013-05-04 06:41:00,
2013-05-04 01:52:00,36.0,34.0,-100.00,ENE,60,7.0,12.0,92,0.00,,,0.00,,2013-05-04 06:52:00,
2013-05-04 02:01:00,36.0,34.0,-100.00,ENE,60,6.0,12.0,93,0.00,,,0.00,,2013-05-04 07:01:00,
2013-05-04 02:11:00,36.0,34.0,-100.00,ENE,60,9.0,13.0,94,0.00,,,0.00,,2013-05-04 07:11:00,
2013-05-04 02:21:00,35.0,34.0,-100.00,NE,55,9.0,13.0,94,0.00,,,0.00,,2013-05-04 07:21:00,
2013-05-04 02:32:00,35.0,34.0,-100.00,NE,55,9.0,14.0,94,0.00,,,0.00,,2013-05-04 07:32:00,
2013-05-04 02:42:00,35.0,34.0,-100.00,ENE,60,6.0,11.0,94,0.00,,,0.00,,2013-05-04 07:42:00,
2013-05-04 02:52:00,35.0,34.0,-100.00,NE,40,8.0,12.0,94,0.00,,,0.00,,2013-05-04 07:52:00,
2013-05-04 03:01:00,35.0,34.0,-100.00,NE,40,9.0,13.0,94,0.00,,,0.00,,2013-05-04 08:01:00,
2013-05-04 03:11:00,35.0,34.0,-100.00,NE,45,9.0,14.0,94,0.00,,,0.00,,2013-05-04 08:11:00,
2013-05-04 03:21:00,35.0,34.0,-100.00,NE,40,9.0,13.0,94,0.00,,,0.00,,2013-05-04 08:21:00,
2013-05-04 03:31:00,35.0,34.0,-100.00,NE,40,7.0,15.0,95,0.00,,,0.00,,2013-05-04 08:31:00,
2013-05-04 03:41:00,35.0,34.0,-100.00,NNE,30,9.0,13.0,94,0.00,,,0.00,,2013-05-04 08:41:00,
2013-05-04 03:52:00,35.0,34.0,-100.00,NNE,30,11.0,14.0,94,0.00,,,0.00,,2013-05-04 08:52:00,
2013-05-04 04:02:00,35.0,34.0,-100.00,NNE,30,11.0,15.0,94,0.00,,,0.00,,2013-05-04 09:02:00,
2013-05-04 04:11:00,35.0,34.0,-100.00,NNE,30,11.0,16.0,94,0.00,,,0.00,,2013-05-04 09:11:00,
2013-05-04 04:21:00,34.0,34.0,-100.00,NE,35,12.0,16.0,95,0.00,,,0.00,,2013-05-04 09:21:00,
2013-05-04 04:32:00,34.0,34.0,-100.00,NE,35,14.0,21.0,94,0.00,,,0.00,,2013-05-04 09:32:00,
2013-05-04 04:42:00,34.0,34.0,-100.00,NE,45,10.0,16.0,94,0.00,,,0.00,,2013-05-04 09:42:00,
2013-05-04 04:52:00,34.0,34.0,-100.00,NE,45,11.0,17.0,94,0.00,,,0.00,,2013-05-04 09:52:00,
2013-05-04 05:02:00,34.0,34.0,-100.00,NNE,25,9.0,14.0,94,0.00,,,0.00,,2013-05-04 10:02:00,
2013-05-04 05:12:00,34.0,32.0,-100.00,NE,35,10.0,16.0,94,0.00,,,0.00,,2013-05-04 10:12:00,
2013-05-04 05:22:00,34.0,32.0,-100.00,NNE,20,7.0,14.0,94,0.00,,,0.00,,2013-05-04 10:22:00,
2013-05-04 05:33:00,34.0,32.0,-100.00,NNE,30,10.0,16.0,94,0.00,,,0.00,,2013-05-04 10:33:00,
2013-05-04 05:42:00,34.0,32.0,-100.00,NE,35,11.0,16.0,94,0.00,,,0.00,,2013-05-04 10:42:00,
2013-05-04 05:52:00,34.0,32.0,-100.00,NE,40,9.0,12.0,94,0.00,,,0.00,,2013-05-04 10:52:00,
2013-05-04 06:02:00,34.0,32.0,-100.00,NE,40,10.0,16.0,94,0.00,,,0.00,,2013-05-04 11:02:00,
2013-05-04 06:11:00,34.0,32.0,-100.00,NE,45,11.0,17.0,94,0.00,,,0.00,,2013-05-04 11:11:00,
2013-05-04 06:21:00,34.0,32.0,-100.00,NE,35,9.0,14.0,94,0.00,,,0.00,,2013-05-04 11:21:00,
2013-05-04 06:32:00,34.0,32.0,-100.00,NE,40,9.0,13.0,94,0.00,,,0.00,,2013-05-04 11:32:00,
2013-05-04 06:42:00,34.0,32.0,-100.00,NE,40,9.0,13.0,94,0.00,,,0.00,,2013-05-04 11:42:00,
2013-05-04 06:55:00,34.0,32.0,-100.00,NE,35,7.0,14.0,94,0.00,,,0.00,,2013-05-04 11:55:00,
2013-05-04 07:05:00,34.0,32.0,-100.00,NE,35,11.0,15.0,94,0.00,,,0.00,,2013-05-04 12:05:00,
2013-05-04 07:13:00,34.0,32.0,-100.00,NE,40,10.0,14.0,94,0.00,,,0.00,,2013-05-04 12:13:00,
2013-05-04 07:26:00,34.0,32.0,-100.00,NE,35,12.0,18.0,94,0.00,,,0.00,,2013-05-04 12:26:00,
2013-05-04 07:36:00,34.0,32.0,-100.00,NE,35,12.0,17.0,94,0.00,,,0.00,,2013-05-04 12:36:00,
2013-05-04 07:42:00,34.0,32.0,-100.00,NE,40,12.0,17.0,94,0.00,,,0.00,,2013-05-04 12:42:00,
2013-05-04 07:51:00,34.0,32.0,-100.00,NE,35,11.0,15.0,94,0.00,,,0.00,,2013-05-04 12:51:00,
2013-05-04 08:01:00,34.0,32.0,-100.00,NE,40,11.0,15.0,94,0.00,,,0.00,,2013-05-04 13:01:00,
2013-05-04 08:21:00,34.0,32.0,-100.00,NE,35,10.0,15.0,94,0.00,,,0.00,,2013-05-04 13:21:00,
2013-05-04 08:32:00,34.0,34.0,-100.00,NE,40,12.0,17.0,94,0.00,,,0.00,,2013-05-04 13:32:00,
2013-05-04 08:41:00,34.0,34.0,-100.00,NE,35,11.0,17.0,94,0.00,,,0.00,,2013-05-04 13:41:00,
2013-05-04 08:52:00,34.0,34.0,-100.00,NNE,25,9.0,15.0,94,0.00,,,0.00,,2013-05-04 13:52:00,
2013-05-04 09:02:00,35.0,34.0,-100.00,NNE,30,9.0,19.0,94,0.00,,,0.00,,2013-05-04 14:02:00,
2013-05-04 09:11:00,34.0,34.0,-100.00,NE,40,11.0,14.0,94,0.00,,,0.00,,2013-05-04 14:11:00,
2013-05-04 09:21:00,34.0,34.0,-100.00,NNE,30,10.0,13.0,94,0.00,,,0.00,,2013-05-04 14:21:00,
2013-05-04 09:32:00,34.0,34.0,-100.00,NNE,30,14.0,17.0,94,0.00,,,0.00,,2013-05-04 14:32:00,
2013-05-04 09:41:00,35.0,34.0,-100.00,NNE,30,13.0,17.0,94,0.00,,,0.00,,2013-05-04 14:41:00,
2013-05-04 09:51:00,35.0,34.0,-100.00,NNE,30,11.0,18.0,94,0.00,,,0.00,,2013-05-04 14:51:00,
2013-05-04 10:02:00,35.0,34.0,-100.00,NE,35,11.0,16.0,94,0.00,,,0.00,,2013-05-04 15:02:00,
2013-05-04 10:11:00,34.0,34.0,-100.00,NNE,30,13.0,17.0,94,0.00,,,0.00,,2013-05-04 15:11:00,
2013-05-04 10:21:00,35.0,34.0,-100.00,NE,35,9.0,16.0,94,0.00,,,0.00,,2013-05-04 15:21:00,
2013-05-04 10:33:00,35.0,34.0,-100.00,NE,35,12.0,17.0,94,0.00,,,0.00,,2013-05-04 15:33:00,
2013-05-04 10:43:00,35.0,34.0,-100.00,NE,40,11.0,17.0,94,0.00,,,0.00,,2013-05-04 15:43:00,
2013-05-04 10:52:00,35.0,34.0,-100.00,NE,35,12.0,16.0,94,0.00,,,0.00,,2013-05-04 15:52:00,
2013-05-04 11:03:00,35.0,34.0,-100.00,NNE,30,14.0,17.0,94,0.00,,,0.00,,2013-05-04 16:03:00,
2013-05-04 11:12:00,35.0,34.0,-100.00,NE,35,12.0,18.0,94,0.00,,,0.00,,2013-05-04 16:12:00,
2013-05-04 11:22:00,36.0,34.0,-100.00,NE,35,10.0,17.0,93,0.00,,,0.00,,2013-05-04 16:22:00,
2013-05-04 11:33:00,36.0,34.0,-100.00,NE,35,13.0,17.0,93,0.00,,,0.00,,2013-05-04 16:33:00,
2013-05-04 11:42:00,36.0,34.0,-100.00,NE,35,13.0,17.0,93,0.00,,,0.00,,2013-05-04 16:42:00,
2013-05-04 11:52:00,36.0,34.0,-100.00,NE,35,11.0,16.0,92,0.00,,,0.00,,2013-05-04 16:52:00,
2013-05-04 12:02:00,36.0,34.0,-100.00,NE,40,13.0,17.0,92,0.00,,,0.00,,2013-05-04 17:02:00,
2013-05-04 12:12:00,36.0,34.0,-100.00,NE,40,12.0,17.0,91,0.00,,,0.00,,2013-05-04 17:12:00,
2013-05-04 12:22:00,36.0,34.0,-100.00,NE,40,12.0,16.0,91,0.00,,,0.00,,2013-05-04 17:22:00,
2013-05-04 12:32:00,36.0,34.0,-100.00,NE,35,14.0,18.0,91,0.00,,,0.00,,2013-05-04 17:32:00,
2013-05-04 12:42:00,36.0,34.0,-100.00,NNE,30,12.0,17.0,91,0.00,,,0.00,,2013-05-04 17:42:00,
2013-05-04 12:52:00,36.0,34.0,-100.00,NE,35,14.0,19.0,91,0.00,,,0.00,,2013-05-04 17:52:00,
2013-05-04 13:01:00,36.0,34.0,-100.00,NNE,30,12.0,20.0,91,0.00,,,0.00,,2013-05-04 18:01:00,
2013-05-04 13:12:00,36.0,34.0,-100.00,NE,40,12.0,18.0,91,0.00,,,0.00,,2013-05-04 18:12:00,
2013-05-04 13:21:00,36.0,34.0,-100.00,NNE,30,13.0,17.0,91,0.00,,,0.00,,2013-05-04 18:21:00,
2013-05-04 13:32:00,36.0,34.0,-100.00,NE,35,16.0,21.0,91,0.00,,,0.00,,2013-05-04 18:32:00,
2013-05-04 13:42:00,36.0,34.0,-100.00,NNE,25,14.0,22.0,91,0.00,,,0.00,,2013-05-04 18:42:00,
2013-05-04 13:52:00,36.0,34.0,-100.00,NE,35,14.0,20.0,91,0.00,,,0.00,,2013-05-04 18:52:00,
2013-05-04 14:01:00,37.0,34.0,-100.00,NE,45,13.0,21.0,91,0.00,,,0.00,,2013-05-04 19:01:00,
2013-05-04 14:11:00,37.0,36.0,-100.00,NE,40,13.0,20.0,91,0.00,,,0.00,,2013-05-04 19:11:00,
2013-05-04 14:21:00,37.0,36.0,-100.00,NE,45,12.0,19.0,91,0.00,,,0.00,,2013-05-04 19:21:00,
2013-05-04 14:32:00,37.0,36.0,-100.00,NE,35,9.0,16.0,91,0.00,,,0.00,,2013-05-04 19:32:00,
2013-05-04 14:42:00,37.0,36.0,-100.00,NE,40,9.0,16.0,91,0.00,,,0.00,,2013-05-04 19:42:00,
2013-05-04 14:52:00,37.0,36.0,-100.00,NE,50,9.0,14.0,91,0.00,,,0.00,,2013-05-04 19:52:00,
2013-05-04 15:02:00,37.0,36.0,-100.00,NE,40,13.0,16.0,91,0.00,,,0.00,,2013-05-04 20:02:00,
2013-05-04 15:11:00,37.0,36.0,-100.00,NE,35,12.0,16.0,91,0.00,,,0.00,,2013-05-04 20:11:00,
2013-05-04 15:22:00,37.0,36.0,-100.00,NE,35,11.0,17.0,90,0.00,,,0.00,,2013-05-04 20:22:00,
2013-05-04 15:32:00,37.0,36.0,-100.00,NE,35,12.0,16.0,90,0.00,,,0.00,,2013-05-04 20:32:00,
2013-05-04 15:42:00,37.0,36.0,-100.00,NNE,30,12.0,18.0,90,0.00,,,0.00,,2013-05-04 20:42:00,
2013-05-04 15:51:00,38.0,36.0,-100.00,NE,40,8.0,15.0,90,0.00,,,0.00,,2013-05-04 20:51:00,
2013-05-04 16:02:00,38.0,36.0,-100.00,NE,40,11.0,14.0,89,0.00,,,0.00,,2013-05-04 21:02:00,
2013-05-04 16:11:00,38.0,36.0,-100.00,NE,40,10.0,16.0,89,0.00,,,0.00,,2013-05-04 21:11:00,
2013-05-04 16:22:00,38.0,36.0,-100.00,NNE,30,12.0,16.0,89,0.00,,,0.00,,2013-05-04 21:22:00,
2013-05-04 16:33:00,38.0,36.0,-100.00,NNE,25,11.0,15.0,89,0.00,,,0.00,,2013-05-04 21:33:00,
2013-05-04 16:43:00,38.0,36.0,-100.00,NE,45,9.0,14.0,89,0.00,,,0.00,,2013-05-04 21:43:00,
2013-05-04 16:52:00,38.0,36.0,-100.00,NE,35,10.0,16.0,89,0.00,,,0.00,,2013-05-04 21:52:00,
2013-05-04 17:03:00,38.0,36.0,-100.00,NE,35,9.0,14.0,90,0.00,,,0.00,,2013-05-04 22:03:00,
2013-05-04 17:12:00,38.0,36.0,-100.00,NE,40,9.0,12.0,89,0.00,,,0.00,,2013-05-04 22:12:00,
2013-05-04 17:22:00,38.0,36.0,-100.00,NNE,25,9.0,16.0,90,0.00,,,0.00,,2013-05-04 22:22:00,
2013-05-04 17:33:00,38.0,36.0,-100.00,NE,40,9.0,13.0,90,0.00,,,0.00,,2013-05-04 22:33:00,
2013-05-04 17:42:00,38.0,36.0,-100.00,NNE,30,11.0,13.0,90,0.00,,,0.00,,2013-05-04 22:42:00,
2013-05-04 17:52:00,38.0,36.0,-100.00,NNE,30,9.0,13.0,91,0.00,,,0.00,,2013-05-04 22:52:00,
2013-05-04 18:02:00,37.0,36.0,-100.00,NE,40,8.0,14.0,91,0.00,,,0.00,,2013-05-04 23:02:00,
2013-05-04 18:11:00,37.0,36.0,-100.00,NE,35,9.0,12.0,92,0.00,,,0.00,,2013-05-04 23:11:00,
2013-05-04 18:21:00,37.0,36.0,-100.00,NE,35,12.0,16.0,92,0.00,,,0.00,,2013-05-04 23:21:00,
2013-05-04 18:32:00,37.0,36.0,-100.00,NNE,25,9.0,14.0,93,0.00,,,0.00,,2013-05-04 23:32:00,
2013-05-04 18:42:00,37.0,36.0,-100.00,NNE,20,9.0,16.0,93,0.00,,,0.00,,2013-05-04 23:42:00,
2013-05-04 18:52:00,37.0,36.0,-100.00,NE,40,9.0,15.0,93,0.00,,,0.00,,2013-05-04 23:52:00,
2013-05-04 19:01:00,37.0,36.0,-100.00,NE,40,8.0,13.0,93,0.00,,,0.00,,2013-05-05 00:01:00,
2013-05-04 19:11:00,38.0,36.0,-100.00,NE,35,6.0,10.0,93,0.00,,,0.00,,2013-05-05 00:11:00,
2013-05-04 19:21:00,37.0,36.0,-100.00,NE,35,10.0,12.0,93,0.00,,,0.00,,2013-05-05 00:21:00,
2013-05-04 19:31:00,37.0,36.0,-100.00,NE,35,11.0,14.0,94,0.00,,,0.00,,2013-05-05 00:31:00,
2013-05-04 19:42:00,37.0,36.0,-100.00,NNE,30,9.0,13.0,93,0.00,,,0.00,,2013-05-05 00:42:00,
2013-05-04 19:51:00,37.0,36.0,-100.00,NE,40,9.0,14.0,94,0.00,,,0.00,,2013-05-05 00:51:00,
2013-05-04 20:01:00,37.0,36.0,-100.00,NE,35,9.0,12.0,94,0.00,,,0.00,,2013-05-05 01:01:00,
2013-05-04 20:11:00,37.0,36.0,-100.00,NNE,30,10.0,14.0,94,0.00,,,0.00,,2013-05-05 01:11:00,
2013-05-04 20:21:00,37.0,36.0,-100.00,NNE,30,9.0,12.0,94,0.00,,,0.00,,2013-05-05 01:21:00,
2013-05-04 20:32:00,37.0,36.0,-100.00,NNE,25,8.0,15.0,94,0.00,,,0.00,,2013-05-05 01:32:00,
2013-05-04 20:42:00,37.0,36.0,-100.00,NNE,30,9.0,11.0,94,0.00,,,0.00,,2013-05-05 01:42:00,
2013-05-04 20:52:00,37.0,36.0,-100.00,NE,35,9.0,11.0,94,0.00,,,0.00,,2013-05-05 01:52:00,
2013-05-04 21:02:00,37.0,36.0,-100.00,NE,40,7.0,10.0,94,0.00,,,0.00,,2013-05-05 02:02:00,
2013-05-04 21:11:00,37.0,36.0,-100.00,NE,35,7.0,10.0,94,0.00,,,0.00,,2013-05-05 02:11:00,
2013-05-04 21:21:00,37.0,36.0,-100.00,NE,45,10.0,15.0,94,0.00,,,0.00,,2013-05-05 02:21:00,
2013-05-04 21:31:00,37.0,36.0,-100.00,NE,45,9.0,15.0,94,0.00,,,0.00,,2013-05-05 02:31:00,
2013-05-04 21:42:00,37.0,36.0,-100.00,NNE,30,8.0,13.0,94,0.00,,,0.00,,2013-05-05 02:42:00,
2013-05-04 21:52:00,37.0,36.0,-100.00,NE,35,7.0,12.0,94,0.00,,,0.00,,2013-05-05 02:52:00,
2013-05-04 22:01:00,37.0,36.0,-100.00,NE,40,7.0,13.0,94,0.00,,,0.00,,2013-05-05 03:01:00,
2013-05-04 22:11:00,37.0,36.0,-100.00,NE,50,9.0,12.0,94,0.00,,,0.00,,2013-05-05 03:11:00,
2013-05-04 22:21:00,37.0,36.0,-100.00,NE,45,7.0,12.0,94,0.00,,,0.00,,2013-05-05 03:21:00,
2013-05-04 22:33:00,37.0,36.0,-100.00,NE,50,10.0,14.0,94,0.00,,,0.00,,2013-05-05 03:33:00,
2013-05-04 22:42:00,37.0,36.0,-100.00,NE,50,6.0,10.0,94,0.00,,,0.00,,2013-05-05 03:42:00,
2013-05-04 22:52:00,37.0,36.0,-100.00,NE,40,7.0,12.0,94,0.00,,,0.00,,2013-05-05 03:52:00,
2013-05-04 23:02:00,37.0,36.0,-100.00,NE,40,7.0,12.0,94,0.00,,,0.00,,2013-05-05 04:02:00,
2013-05-04 23:12:00,37.0,36.0,-100.00,NE,50,6.0,9.0,94,0.00,,,0.00,,2013-05-05 04:12:00,
2013-05-04 23:22:00,37.0,36.0,-100.00,NE,50,7.0,10.0,94,0.00,,,0.00,,2013-05-05 04:22:00,
2013-05-04 23:32:00,37.0,36.0,-100.00,NE,55,7.0,11.0,94,0.00,,,0.00,,2013-05-05 04:32:00,
2013-05-04 23:43:00,37.0,36.0,-100.00,NE,45,7.0,11.0,94,0.00,,,0.00,,2013-05-05 04:43:00,
2013-05-04 23:52:00,37.0,36.0,-100.00,NE,45,7.0,11.0,94,0.00,,,0.00,,2013-05-05 04:52:00,